User: anonymous   Login
Location: Melbourne
(37.8170°S, 144.9670°E)
Time: 14:59:30
(UTC+11:00)
Language:

Aureole 2 Rocket - Orbit

View from above orbital plane
View from above orbital plane
View from above satellite
View from above satellite

Ground track
Ground track

The orbit data is extracted from the following two-line orbital elements,

1 07004U 73107B   17328.83046960  .00015643  00000-0  21119-3 0  9992
2 07004  73.9339  73.1345 0164004 262.1090  96.1478 15.43421509261946
Epoch (UTC): 24 November 2017 19:55:52
Eccentricity: 0.0164004
inclination: 73.9339°
perigee height: 324 km
apogee height: 548 km
right ascension of ascending node: 73.1345°
argument of perigee: 262.1090°
revolutions per day: 15.43421509
mean anomaly at epoch: 96.1478°
orbit number at epoch: 26194

The dashed part of the orbit path shows where the satellite is in the earth's shadow,  

DLR